TimeMST,TemperatureF,Dew PointF,Humidity,Sea Level PressureIn,VisibilityMPH,Wind Direction,Wind SpeedMPH,Gust SpeedMPH,PrecipitationIn,Events,Conditions,WindDirDegrees,DateUTC
12:53 AM,57.9,27.0,31,29.71,10.0,West,11.5,-,N/A,,Clear,260,2012-11-09 07:53:00
1:53 AM,55.0,27.0,34,29.71,10.0,WSW,10.4,-,N/A,,Clear,250,2012-11-09 08:53:00
2:53 AM,54.0,27.0,35,29.71,10.0,WSW,13.8,-,N/A,,Clear,240,2012-11-09 09:53:00
3:53 AM,51.1,27.0,39,29.72,10.0,SW,8.1,-,N/A,,Clear,230,2012-11-09 10:53:00
4:31 AM,55.4,26.6,33,29.86,10.0,WSW,12.7,-,N/A,,Clear,250,2012-11-09 11:31:00
4:53 AM,55.0,25.0,31,29.73,10.0,WSW,12.7,-,N/A,,Clear,240,2012-11-09 11:53:00
5:53 AM,51.1,24.1,35,29.76,10.0,WSW,12.7,-,N/A,,Clear,240,2012-11-09 12:53:00
6:53 AM,53.1,24.1,32,29.78,10.0,SW,9.2,-,N/A,,Clear,220,2012-11-09 13:53:00
7:53 AM,60.1,24.1,25,29.75,10.0,SW,13.8,-,N/A,,Clear,230,2012-11-09 14:53:00
8:53 AM,66.9,27.0,22,29.75,10.0,SSW,16.1,-,N/A,,Clear,210,2012-11-09 15:53:00
9:53 AM,72.0,30.0,21,29.75,10.0,West,28.8,38.0,N/A,,Clear,260,2012-11-09 16:53:00
10:53 AM,73.9,30.9,21,29.73,9.0,WSW,33.4,40.3,N/A,,Clear,250,2012-11-09 17:53:00
11:53 AM,77.0,28.9,17,29.68,10.0,WSW,27.6,38.0,N/A,,Clear,250,2012-11-09 18:53:00
12:53 PM,79.0,30.0,17,29.65,10.0,WSW,29.9,39.1,N/A,,Clear,240,2012-11-09 19:53:00
1:53 PM,77.0,34.0,21,29.63,8.0,WSW,29.9,42.6,N/A,,Clear,250,2012-11-09 20:53:00
2:53 PM,77.0,36.0,23,29.64,10.0,WSW,27.6,41.4,N/A,,Clear,250,2012-11-09 21:53:00
3:53 PM,73.9,35.1,24,29.67,10.0,WSW,29.9,38.0,N/A,,Clear,240,2012-11-09 22:53:00
4:53 PM,70.0,36.0,29,29.67,10.0,WSW,27.6,40.3,N/A,,Clear,250,2012-11-09 23:53:00
5:53 PM,68.0,37.0,32,29.70,10.0,SW,20.7,28.8,N/A,,Scattered Clouds,230,2012-11-10 00:53:00
6:53 PM,64.9,37.9,37,29.74,10.0,SW,18.4,-,N/A,,Clear,220,2012-11-10 01:53:00
7:53 PM,64.0,39.0,40,29.73,10.0,SW,16.1,-,N/A,,Partly Cloudy,230,2012-11-10 02:53:00
8:53 PM,61.0,39.0,44,29.70,10.0,SW,12.7,-,N/A,,Clear,220,2012-11-10 03:53:00
9:53 PM,60.1,39.0,46,29.70,10.0,SW,11.5,-,N/A,,Clear,220,2012-11-10 04:53:00
10:53 PM,59.0,37.9,46,29.68,10.0,SSW,13.8,-,N/A,,Clear,210,2012-11-10 05:53:00
11:53 PM,55.9,37.9,51,29.69,10.0,South,6.9,-,N/A,,Clear,190,2012-11-10 06:53:00